Location: Battersea Observatory
(44.4318°N, 76.3841°W)
Time: 21:13:18
(UTC-05:00)

Transit 2A Rocket - Visible Passes

Search period start: 27 January 2022 00:00
Search period end: 06 February 2022 00:00
Orbit: 585 x 917 km, 66.7° (Epoch: 27 January)

Date Brightness Start Highest point End Pass type
(mag) Time Alt. Az. Time Alt. Az. Time Alt. Az.
27 Jan 5.5 18:33:31 10° SW 18:39:36 79° WNW 18:45:26 12° NNE visible
27 Jan 7.4 20:18:43 10° W 20:23:12 21° NW 20:25:22 17° N visible
28 Jan 5.4 17:50:53 10° SSW 17:56:54 68° ESE 18:02:59 10° NE visible
28 Jan 7.0 19:34:50 10° W 19:40:03 28° NW 19:44:15 14° N visible
29 Jan 6.5 18:51:18 10° WSW 18:57:02 41° NW 19:02:45 10° NNE visible
29 Jan 7.8 20:38:42 10° NW 20:41:21 13° NNW 20:42:58 12° N visible
30 Jan 5.9 18:08:07 10° SW 18:14:07 61° NW 18:20:10 10° NNE visible
30 Jan 7.6 19:54:08 10° WNW 19:58:01 17° NNW 20:01:42 10° N visible
31 Jan 7.3 19:10:01 10° W 19:14:47 23° NW 19:19:31 10° NNE visible
01 Feb 6.9 18:26:15 10° WSW 18:31:41 32° NW 18:37:04 10° NNE visible
01 Feb 7.9 20:14:48 10° NW 20:16:16 11° NNW 20:17:46 10° N visible
02 Feb 6.3 17:42:50 10° SW 17:48:42 47° NW 17:54:33 10° NNE visible
02 Feb 7.7 19:29:44 10° WNW 19:32:52 14° NNW 19:35:57 10° N visible
03 Feb 7.5 18:45:20 10° W 18:49:34 19° NW 18:53:44 10° N visible
04 Feb 7.2 18:01:20 10° W 18:06:23 26° NW 18:11:22 10° NNE visible
05 Feb 7.7 19:05:35 10° NW 19:07:46 12° NNW 19:09:54 10° N visible
